Weather Roundup
Issued by NWS Chicago, IL

Home | Current Version | Previous Version | Text Only | Print | Product List | Glossary Off
Versions: 1 2 3 4 5 6 7 8 9 10 11 12 13 14 15 16 17 18 19 20 21 22 23 24 25 26 27 28 29 30 31 32 33 34 35 36 37 38 39 40 41 42 43 44 45 46 47 48 49 50

704
NZUS59 KLOT 060408
HRRLOT

CHICAGO AREA WEATHER ROUNDUP
NATIONAL WEATHER SERVICE CHICAGO/ROMEOVILLE IL
1000 PM CST FRI FEB 05 2016

NOTE: "FAIR" INDICATES FEW OR NO CLOUDS BELOW 12,000 FEET WITH NO
SIGNIFICANT WEATHER AND/OR OBSTRUCTIONS TO VISIBILITY.

* THESE STATIONS ARE NOT UNDER NWS QUALITY CONTROL. THEY ALSO MAY NOT
  REPORT WEATHER SUCH AS PRECIPITATION OR FOG.

ILZ005-006-012>014-019>023-060500-
NORTHEAST ILLINOIS

CITY           SKY/WX    TMP DP  RH WIND       PRES   REMARKS
OHARE          MOCLDY    27  21  78 SW5       30.31F WCI  22
MIDWAY         MOCLDY    29  20  69 SW6       30.33F WCI  23
AURORA         MOCLDY    26  22  84 SW5       30.33S WCI  20
LANSING*       MOCLDY    26  23  87 SW3       30.33F
JOLIET*        PTCLDY    27  23  85 CALM      30.34S
WAUKEGAN       PTCLDY    27  20  75 CALM      30.30F
DUPAGE AIRPORT CLOUDY    25  20  81 SW6       30.31F WCI  18
WHEELING       CLEAR     29  21  72 CALM      30.32F
KANKAKEE*      CLEAR     25  22  89 CALM      30.35S
MORRIS*        PTCLDY    26  22  85 SW3       30.31S
LEWIS AIRPORT* CLEAR     26  22  86 SW6       30.33S WCI  19
$$

WIZ051-052-058>065-066-070>072-060500-
SOUTHEAST WISCONSIN

CITY           SKY/WX    TMP DP  RH WIND       PRES   REMARKS
MILWAUKEE      CLOUDY    29  18  63 W6        30.30F WCI  23
KENOSHA*       CLOUDY    26  19  74 SW6       30.30F WCI  19
RACINE*        CLOUDY    28  18  66 SW5       30.31F WCI  23
BURLINGTON     CLOUDY    24  19  80 SW3       30.30F
WAUKESHA       CLOUDY    27  18  69 SW3       30.30S
WEST BEND      CLOUDY    27  19  74 CALM      30.27F
$$

INZ001>003-010>013-019-020-060500-
NORTHWEST INDIANA

CITY           SKY/WX    TMP DP  RH WIND       PRES   REMARKS
GARY*          MOCLDY    29  23  76 CALM      30.34F
MICHIGAN CITY* NOT AVBL
RENSSELAER*    NOT AVBL
VALPARAISO     CLEAR     25  22  88 SW5       30.32F WCI  19
$$

LMZ740>746-060500-
SOUTHERN LAKE MICHIGAN

STATION/POSITION TIME  SKY/WX   TEMP WIND        PRES    VSBY
                                AIR  DIR/SP/G
                 (UTC)          (F)  (DEG/KT/KT) (MB)    (MI)
HARRISON CRIB    0300            32  270/  8/  9   N/A
BURNHAM HARBOR   0400            30  200/  3/  8   N/A
CALUMET HARBOR   0300            29  220/  4/  8 1026.5F
BURNS HARBOR     0300            30  230/  7/  8 1028.1S
MICHIGAN CITY    0300            29  180/  5/  6   N/A
$$

ABBREVIATIONS USED IN REMARKS
   TC - TEMPERATURE IN CELSIUS
  WCI - WIND CHILL INDEX
   HX - HEAT INDEX
  VSB - VISIBILITY
$$




USA.gov is the U.S. government's official web portal to all federal, state and local government web resources and services.